sat.trackr.live / text

‹ back to catalog

QIANFAN-114

NORAD 68641 · 2026-075F

PAYLOAD ACTIVE UNKNOWN

§ Identity

Operator
Country
PRC
Launch date
2026-04-07
Launch site
WSC
Launch vehicle
Mass (kg)
RCS (m²)

External: N2YO · Heavens-Above · Gunter

§ Orbital elements

Epoch: 2026-09-20T04:15:10.469664Z

Period
106.59 min
Inclination
88.9863°
Eccentricity
0.0002213
Mean motion
13.51027924 rev/d
Perigee alt
1,066.8 km
Apogee alt
1,070.1 km
Semi-major
7,446.6 km
B*
4.4266e-5
RAAN
311.3215°
Arg perigee
96.3606°
Mean anomaly
263.7797°
Rev number
2,262

§ Raw data

QIANFAN-1141 68641U 26075F   26263.17720451  .00000041  00000+0  44266-4 0  99912 68641  88.9863 311.3215 0002213  96.3606 263.7797 13.51027924 22620

JSON: /api/v1/satellites/68641 · /tle

For live sub-satellite position, see the globe view (requires WebGL).

§ Visibility from observer

Set your observer location to see the next 7 days of passes ≥ 10°. The values pass through the URL so the page stays shareable.

No JS? Fill the form by hand. The geolocation button needs JavaScript.